Погода Пономарёво

Погода Пономарёво : погода сейчас, прогноз погоды и архив. Всё, что Вы хотите узнать о погоде Пономарёво!

Поиск расширенной информации на нашем сайте:

Другие новости

Новости СМИ2

Главная страница сайта

Новости сайта

02.10.2013

Напоминаем, что на нашем новом сайте вы можете получить высокодетализированные прогнозы погоды по пунктам России, СНГ и мира (включающие важные для авиации метеовеличины, такие как направление и скорость ветра, видимость, явления погоды, количество и форма облачности, нижняя и верхняя граница облачности), а также ознакомиться с разнообразными материалами по авиационной метеорологии и подборкой полезных ссылок на эту тему.

Сайт Метеоцентр.Азия посвящён разработке технологий оптимизации авиаметеорологического обслуживания, включая проектирование и перспективное создание нескольких автоматизированных авиаметеорологических систем:
- система выпуска высокодетальных прогностических карт явлений погоды для нижнего воздушного пространства по России и ближнему зарубежью;
- система верификации прогнозов TAF (выпускаемых синоптиками официальных АМСГ РФ и ближнего зарубежья) и AUTOTAF (выпускаемых сайтом Метеоцентр.Азия) - выявление ошибок, онлайн-сопоставление с фактической погодой METAR, автоматическое внесение коррективов в прогнозы при резком отклонении фактической погоды от прогноза, подсчёт оправдываемости прогнозов по элементам и в целом;
- система обработки, анализа и отображения авиаметеорологической информации для применения провайдерами метеорологической информации.


Погода Пономарёво - сегодня

Время (UTC), дата Ветер
(°,м/с) 
Видим.   Явления Облачность Т
(°С)
Тd
(°С)
f(%) Тe
(°С)
Pmin
(гПа)
dP
(гПа)
Po
(мм)
O2
(г/м3)
Тmin Tmax R s Состояние
почвы
21 17.02.17 340 (С) н/о  сильн. снег  10/8 600 м средняя 
[Frnb|As op]
-3.1 -3.5 97 -4  1012.8  718  293           
00 18.02.17 350 (С) 1{10}  н/о  слаб. снег  10/4 1000 м средняя 
[Sc|As op]
-7.8 -10.9 78 -8  1020.9  6.7  723  301  -7.8    75  равномерный
сухой снег
100% 
03 18.02.17 270 (З) 1000 м  сильн. снег  10/0 средняя 
[As op]
-10.6 -13.4 80 -10  1027.1  5.4  727  306  -10.6         
06 18.02.17 270 (З) 20000 м  {снег}  6/6 600 м кучево-дожд. 
[Cb cap]
-7.1 -12.9 63 -7  1028.1  1.5  728  302           
09 18.02.17 260 (З) 20000 м    8/8 600 м кучево-дожд. 
[Cb cap]
-7.8 -14.5 59 -8  1029.2  0.9  729  304           
12 18.02.17 тихо ()   н/о    3/3 1000 м 
[Sc]
-12.4 -13.7 90 -12  1031.5  1.3  730  309    -5.1  0.9     
15 18.02.17 тихо ()   н/о    ясно 
-19 -20.2 90 -19  1031.9  -1.1  729  317           
18 18.02.17 тихо ()   н/о    ясно 
-20.2 -22.1 85 -20  1031.8  -0.4  729  319           
21 18.02.17 130 (ЮВ) н/о    ясно 
-16.3 -18.9 80 -16  1029.5  -1.2  728  313           
00 19.02.17 110 (В) н/о    ясно 
-16.3 -18.7 82 -16  1029.2  -0.1  728  313  -20.2      75  равномерный
сухой снег
100% 
03 19.02.17 140 (ЮВ) 20000 м    ясно 
-14.1 -18.4 70 -16  1029.6  0.5  728  311           
06 19.02.17 110 (В) 20000 м    ясно 
-5.5 -14.9 47 -5  1025  -2.3  727  300           
09 19.02.17 080 (В) 20000 м    ясно 
-1.2 -12.7 41 -1  1020  -3.9  724  294           
12 19.02.17 140 (ЮВ) н/о    10/0 средняя 
[As trans]
-7.4 -9.1 88 -7  1020.2  -1.1  723  300    -0.5       
15 19.02.17 170 (Ю) н/о    10/0 средняя 
[As op]
-5.3 -13.9 51 -5  1018.4  -1.3  722  298           
18 19.02.17 тихо ()   н/о    10/0 средняя 
[Ac As]
-8.1 -10.4 83 -8  1022.9  3.6  725  302           
21 19.02.17 тихо ()   н/о  слаб. снег  10/10 600 м 
[Ac As]
-7.1 -8 93 -7  1026.7  3.8  727  302           
00 20.02.17 260 (З) н/о  {снег}  9/6 1000 м верхняя 
[Sc|Ci sp]
-6.5 -10.1 76 -8  1030  3.3  730  302  -8.1    77  равномерный
сухой снег
100% 
03 20.02.17 250 (З) 20000 м    9/8 1000 м верхняя 
[Sc|Ci fib]
-7.5 -15.8 51 -7  1032.4  2.1  731  304           
06 20.02.17 260 (З) 20000 м    6/0 средняя, верхняя 
[Ac trans|Ci fib]
-4.6 -15.1 44 -7  1031.7  -0.1  731  301           
09 20.02.17 240 (ЮЗ) 20000 м    8/0 средняя, верхняя 
[Ac trans|Ci fib]
-2.5 -16.1 34 -4  1029.3  -1.8  730  298           
12 20.02.17 тихо ()   н/о    9/0 средняя, верхняя 
[Ac trans|Ci fib]
-9.2 -12.2 79 -9  1029.7  -1  729  305    -2       
15 20.02.17 120 (ЮВ) н/о    10/4 1000 м средняя 
[Sc|As op]
-9 -14.5 64 -11  1027.4  -2.2  728  304           
18 20.02.17 120 (ЮВ) н/о    10/4 1000 м средняя 
[Sc|As op]
-8.8 -14.2 65 -9  1026.8  -0.6  727  304           
21 20.02.17 тихо ()   н/о  {ливн. осадки}  6/6 600 м кучево-дожд. 
[Cb cap]
-9.7 -11.4 87 -10  1029.4  2.5  729  306           
Время (UTC), дата Ветер
(°,м/с) 
Видим.   Явления Облачность Т
(°С)
Тd
(°С)
f(%) Тe
(°С)
Pmin
(гПа)
dP
(гПа)
Po
(мм)
O2
(г/м3)
Тmin Tmax R s Состояние
почвы

Для получения пояснительной информации подведите курсор к названию столбца.

ПОГОДА Пономарёво - архив

Всё, что Вы хотите узнать о погоде Пономарёво - удобно и подробно!

Выберите нужную дату (начиная с 1 января 2015* года) и нажмите кнопку "Найти".
Будут отображены архивные сводки погоды по пункту Пономарёво, начиная с указанной даты.


Отображать данные в формате CSV (для использования в таблицах Excel)


Внимание! Наш архив погоды предназначен исключительно для личного некоммерческого использования в познавательных целях. Если Вам необходимы официальные справки о состоянии погоды (для производственных, юридических, коммерческих и т.п. целей), обращайтесь в органы Росгидромета.

*Примечание: данная дата относится к архиву по метеостанциям СССР (Россия, СНГ, Балтия).
Архив по метеостанциям Зарубежной Европы и Азии (кроме Китая) хранится 10 дней, по другим регионам земного шара (Китай, Африка, Америка, Австралия, Океания) - 1 день.

Пономарёво - район местоположения метеостанции


Название, широта, долгота, высота метеостанции:
Пономарёво 53.7°ш. 94.2°д. 445 м над ур. моря [Российская Федерация]

Дополнительная информация

В oтличие oт бoльшинства пoгoдных сайтoв мы публикуем пoдрoбную метеoинфoрмацию в детальнoм прoфессиoнальнoм фoрмате.

Характеристики температуры и влажнoсти вoздуха измеряются на высoте 2 м в тени вдали oт зданий и деревьев.
Скoрoсть ветра измеряется на высoте 10 м (на урoвне рoста челoвека скoрoсть ветра ниже в 1.5-2 раза). Если метеoстанция нахoдится в гoрoде или в лесу, тo скoрoсть ветра занижена на 2-4 м/с пo сравнению с oткрытым местoм. Скoрoсть ветра над акватoриями крупных рек и oзёр, а также на вершинах хoлмoв на 2-5 м/с выше, чем в oбычных услoвиях.
Атмoсфернoе давление в разных тoчках местнoсти мoжет значительнo oтличаться oт давления на метеoстанции, в зависимoсти oт услoвий рельефа (при пoдъёме на 10 м давление пoнижается примернo на 1 мм рт.ст.).